Location: Briis
(48.6240°N, 2.1211°E)
Time: 03:29:19
(UTC+00:00)

Cosmos 1666 - Pass Details

Date: 25 September 2020
Orbit: 496 x 521 km, 82.5° (Epoch: 22 October)

Event Time Altitude Azimuth Distance (km) Brightness Sun altitude
Rises 02:52:53 0° 356° (N) 2,642 6.7 -27.4°
Reaches altitude 10° 02:55:09 10° 5° (N) 1,745 5.8 -27.1°
Maximum altitude 02:58:45 38° 75° (ENE) 788 4.0 -26.6°
Enters shadow 02:59:04 37° 88° (E) 800 4.0 -26.5°
